CW5229 Weather Reports


Display with metric or nautical units.
time (UTC)temp
F
wind
direction
speed
MPH
gust
MPH
rain 1hr
in
rain 24hr
in
rain mn
in
humidity
%
barometer
mb
20260507041526 39 276 0.0 0.0 0.00 0.00 0.00 68 1014.9
20260507040005 41 276 0.0 0.0 0.00 0.00 0.00 65 1014.9
20260507034501 42 276 0.0 0.0 0.00 0.00 0.00 61 1014.9
20260507033059 42 276 0.0 1.0 0.00 0.00 0.00 60 1014.9
20260507031526 43 297 0.0 0.0 0.00 0.00 0.00 60 1014.8
20260507030021 44 297 0.0 0.0 0.00 0.00 0.00 57 1014.7
20260507024617 46 297 0.0 0.0 0.00 0.00 0.00 53 1014.7
20260507023056 47 307 0.0 3.0 0.00 0.00 0.00 52 1014.5
20260507021549 47 285 0.0 3.0 0.00 0.00 0.00 50 1014.3
20260507020008 48 282 1.0 6.0 0.00 0.00 0.00 49 1014.1
20260507014514 49 319 1.0 7.0 0.00 0.00 0.00 48 1013.9
20260507013042 49 241 4.0 11.0 0.00 0.00 0.00 47 1013.7
20260507011536 50 290 3.0 12.0 0.00 0.00 0.00 46 1013.6
20260507010021 51 243 1.0 12.0 0.00 0.00 0.00 46 1013.4
20260507004520 52 297 2.0 7.0 0.00 0.00 0.00 46 1013.3
20260507003017 52 302 2.0 7.0 0.00 0.00 0.00 45 1013.2
20260507001514 53 211 3.0 8.0 0.00 0.00 0.00 45 1013.1
20260507000020 53 262 3.0 11.0 0.00 0.00 0.00 44 1012.9
20260506234506 54 321 2.0 9.0 0.00 0.00 0.00 43 1012.7
20260506233004 55 252 2.0 10.0 0.00 0.00 0.00 42 1012.7
20260506231502 54 301 1.0 10.0 0.00 0.00 0.00 43 1012.6
20260506230057 56 255 4.0 11.0 0.00 0.00 0.00 40 1012.4
20260506224557 55 265 1.0 10.0 0.00 0.00 0.00 42 1012.4
20260506223106 56 252 2.0 8.0 0.00 0.00 0.00 40 1012.4
20260506221552 56 129 4.0 11.0 0.00 0.00 0.00 40 1012.3
20260506220049 57 207 4.0 15.0 0.00 0.00 0.00 38 1012.3
20260506214551 57 231 1.0 8.0 0.00 0.00 0.00 39 1012.1
20260506213047 58 278 1.0 7.0 0.00 0.00 0.00 40 1012.1
20260506211547 58 210 3.0 11.0 0.00 0.00 0.00 39 1012.1
20260506210044 58 278 1.0 8.0 0.00 0.00 0.00 40 1012.2
20260506204542 57 228 3.0 10.0 0.00 0.00 0.00 42 1012.3
20260506203045 58 269 2.0 8.0 0.00 0.00 0.00 44 1012.4
20260506201539 57 285 1.0 8.0 0.00 0.00 0.00 46 1012.7
20260506200006 57 339 3.0 10.0 0.00 0.00 0.00 42 1012.8
20260506194508 56 208 1.0 9.0 0.00 0.00 0.00 45 1012.9
20260506193001 57 153 2.0 6.0 0.00 0.00 0.00 44 1012.9
20260506191601 58 298 2.0 5.0 0.00 0.00 0.00 43 1013.0
20260506190059 58 270 0.0 8.0 0.00 0.00 0.00 44 1012.9
20260506184558 58 266 2.0 6.0 0.00 0.00 0.00 41 1012.9
20260506183030 58 340 5.0 13.0 0.00 0.00 0.00 40 1012.7
20260506181531 58 235 2.0 9.0 0.00 0.00 0.00 40 1012.9
20260506180031 57 167 1.0 5.0 0.00 0.00 0.00 40 1012.9
20260506174520 58 245 4.0 10.0 0.00 0.00 0.00 41 1013.1
20260506173020 58 313 2.0 9.0 0.00 0.00 0.00 38 1013.2
20260506171534 58 297 4.0 11.0 0.00 0.00 0.00 37 1013.1
20260506170013 57 323 2.0 10.0 0.00 0.00 0.00 40 1013.0
20260506164511 57 284 3.0 11.0 0.00 0.00 0.00 36 1013.0
20260506163018 58 247 1.0 9.0 0.00 0.00 0.00 39 1013.1
20260506161519 56 277 1.0 6.0 0.00 0.00 0.00 40 1012.9
20260506160009 56 271 3.0 10.0 0.00 0.00 0.00 38 1013.0
20260506154505 55 268 2.0 7.0 0.00 0.00 0.00 40 1013.0
20260506153004 55 277 1.0 5.0 0.00 0.00 0.00 43 1013.1
20260506151504 55 316 1.0 3.0 0.00 0.00 0.00 43 1013.3
20260506150005 54 228 0.0 2.0 0.00 0.00 0.00 50 1013.2
20260506144501 52 224 0.0 2.0 0.00 0.00 0.00 52 1013.3
20260506143101 51 56 1.0 4.0 0.00 0.00 0.00 53 1013.2
20260506141600 51 51 0.0 2.0 0.00 0.00 0.00 57 1013.3
20260506140029 50 73 0.0 2.0 0.00 0.00 0.00 60 1013.2
20260506134602 48 64 0.0 1.0 0.00 0.00 0.00 61 1013.0
20260506133021 48 104 0.0 1.0 0.00 0.00 0.00 59 1012.7
20260506131525 48 240 0.0 1.0 0.00 0.00 0.00 65 1012.5
20260506130019 47 315 0.0 0.0 0.00 0.00 0.00 66 1012.3
20260506124518 45 277 0.0 0.0 0.00 0.00 0.00 70 1012.1
20260506123014 44 277 0.0 0.0 0.00 0.00 0.00 74 1012.1
20260506121512 42 277 0.0 0.0 0.00 0.00 0.00 76 1011.9
20260506120012 41 277 0.0 0.0 0.00 0.00 0.00 81 1011.7
20260506114520 40 277 0.0 0.0 0.00 0.00 0.00 82 1011.7
20260506113008 39 277 0.0 0.0 0.00 0.00 0.00 82 1011.4
20260506111503 39 277 0.0 0.0 0.00 0.00 0.00 83 1011.3
20260506110006 38 277 0.0 0.0 0.00 0.00 0.00 82 1011.1
20260506104606 38 277 0.0 0.0 0.00 0.00 0.00 80 1011.1
20260506103104 39 277 0.0 0.0 0.00 0.00 0.00 78 1010.7
20260506101551 40 277 0.0 0.0 0.00 0.00 0.00 77 1010.4
20260506100050 40 277 0.0 0.0 0.00 0.00 0.00 76 1010.5
20260506094549 40 12 0.0 0.0 0.00 0.00 0.00 75 1010.5
20260506093052 41 12 0.0 0.0 0.00 0.00 0.00 73 1010.6
20260506091514 41 13 0.0 0.0 0.00 0.00 0.00 71 1010.5
20260506090119 42 12 0.0 0.0 0.00 0.00 0.00 68 1010.4
20260506084506 43 13 0.0 1.0 0.00 0.00 0.00 68 1010.3
20260506083004 44 13 0.0 1.0 0.00 0.00 0.00 65 1010.3
20260506081602 45 58 0.0 4.0 0.00 0.00 0.00 64 1010.2
20260506073048 46 76 0.0 6.0 0.00 0.00 0.00 63 1009.4
20260506071551 47 323 0.0 4.0 0.00 0.00 0.00 64 1009.1
20260506061540 48 319 0.0 3.0 0.00 0.00 0.00 65 1009.2
20260506050105 48 294 0.0 0.0 0.00 0.00 0.00 66 1008.6
20260506044557 49 294 0.0 0.0 0.00 0.00 0.00 64 1008.7
20260506043056 49 294 0.0 0.0 0.00 0.00 0.00 62 1008.9